Time,TemperatureF,DewpointF,PressureIn,WindDirection,WindDirectionDegrees,WindSpeedMPH,WindSpeedGustMPH,Humidity,HourlyPrecipIn,Conditions,Clouds,dailyrainin,SoftwareType,DateUTC
2013-04-27 00:01:00,47.4,25.5,30.35,NNW,347,1.0,1.0,42,0.00,,CLR,0.00,VWS V14.00,2013-04-27 04:01:00,
2013-04-27 00:06:00,47.4,25.5,30.35,NNW,344,2.0,2.0,42,0.00,,CLR,0.00,VWS V14.00,2013-04-27 04:06:00,
2013-04-27 00:11:00,47.3,25.4,30.35,NW,324,1.0,2.0,42,0.00,,CLR,0.00,VWS V14.00,2013-04-27 04:11:00,
2013-04-27 00:16:00,47.3,25.4,30.35,NW,324,1.0,2.0,42,0.00,,CLR,0.00,VWS V14.00,2013-04-27 04:16:00,
2013-04-27 00:21:00,47.1,25.2,30.35,NW,324,1.0,1.0,42,0.00,,CLR,0.00,VWS V14.00,2013-04-27 04:21:00,
2013-04-27 00:26:00,47.0,25.1,30.35,NNW,333,0.0,3.0,42,0.00,,CLR,0.00,VWS V14.00,2013-04-27 04:26:00,
2013-04-27 00:31:00,46.8,25.5,30.35,North,9,0.0,4.0,43,0.00,,CLR,0.00,VWS V14.00,2013-04-27 04:31:00,
2013-04-27 00:36:00,46.7,25.4,30.35,North,355,3.0,3.0,43,0.00,,CLR,0.00,VWS V14.00,2013-04-27 04:36:00,
2013-04-27 00:42:00,46.5,25.8,30.35,North,355,0.0,1.0,44,0.00,,CLR,0.00,VWS V14.00,2013-04-27 04:42:00,
2013-04-27 00:47:00,46.4,26.2,30.35,North,355,1.0,1.0,45,0.00,,CLR,0.00,VWS V14.00,2013-04-27 04:47:00,
2013-04-27 00:52:00,46.2,26.0,30.35,North,355,0.0,1.0,45,0.00,,CLR,0.00,VWS V14.00,2013-04-27 04:52:00,
2013-04-27 00:57:00,46.1,26.5,30.35,North,355,0.0,1.0,46,0.00,,CLR,0.00,VWS V14.00,2013-04-27 04:57:00,
2013-04-27 01:02:00,45.8,26.2,30.35,North,355,0.0,1.0,46,0.00,,CLR,0.00,VWS V14.00,2013-04-27 05:02:00,
2013-04-27 01:07:00,45.7,26.6,30.35,North,355,0.0,0.0,47,0.00,,CLR,0.00,VWS V14.00,2013-04-27 05:07:00,
2013-04-27 01:12:00,45.4,26.9,30.35,North,355,1.0,1.0,48,0.00,,CLR,0.00,VWS V14.00,2013-04-27 05:12:00,
2013-04-27 01:17:00,45.1,27.1,30.35,North,355,1.0,1.0,49,0.00,,CLR,0.00,VWS V14.00,2013-04-27 05:17:00,
2013-04-27 01:22:00,44.8,26.8,30.35,North,355,0.0,1.0,49,0.00,,CLR,0.00,VWS V14.00,2013-04-27 05:22:00,
2013-04-27 01:27:00,44.5,26.5,30.35,North,355,0.0,1.0,49,0.00,,CLR,0.00,VWS V14.00,2013-04-27 05:27:00,
2013-04-27 01:32:00,44.2,26.8,30.35,North,355,0.0,1.0,50,0.00,,CLR,0.00,VWS V14.00,2013-04-27 05:32:00,
2013-04-27 01:37:00,44.1,26.7,30.35,North,355,0.0,1.0,50,0.00,,CLR,0.00,VWS V14.00,2013-04-27 05:37:00,
2013-04-27 01:42:00,43.8,26.4,30.35,North,355,0.0,1.0,50,0.00,,CLR,0.00,VWS V14.00,2013-04-27 05:42:00,
2013-04-27 01:47:00,43.5,26.6,30.35,North,355,0.0,1.0,51,0.00,,CLR,0.00,VWS V14.00,2013-04-27 05:47:00,
2013-04-27 01:52:00,43.3,26.4,30.35,North,355,0.0,1.0,51,0.00,,CLR,0.00,VWS V14.00,2013-04-27 05:52:00,
2013-04-27 01:57:00,43.2,26.3,30.35,North,355,0.0,1.0,51,0.00,,CLR,0.00,VWS V14.00,2013-04-27 05:57:00,
2013-04-27 02:02:00,43.1,26.7,30.35,North,355,0.0,1.0,52,0.00,,CLR,0.00,VWS V14.00,2013-04-27 06:02:00,
2013-04-27 02:07:00,42.9,26.5,30.35,North,355,0.0,1.0,52,0.00,,CLR,0.00,VWS V14.00,2013-04-27 06:07:00,
2013-04-27 02:12:00,42.8,26.4,30.35,North,355,1.0,2.0,52,0.00,,CLR,0.00,VWS V14.00,2013-04-27 06:12:00,
2013-04-27 02:17:00,42.6,26.7,30.35,North,355,0.0,1.0,53,0.00,,CLR,0.00,VWS V14.00,2013-04-27 06:17:00,
2013-04-27 02:22:00,42.5,26.6,30.35,North,355,0.0,1.0,53,0.00,,CLR,0.00,VWS V14.00,2013-04-27 06:22:00,
2013-04-27 02:27:00,42.3,26.4,30.35,North,355,1.0,2.0,53,0.00,,CLR,0.00,VWS V14.00,2013-04-27 06:27:00,
2013-04-27 02:32:00,42.3,26.4,30.34,North,355,0.0,1.0,53,0.00,,CLR,0.00,VWS V14.00,2013-04-27 06:32:00,
2013-04-27 02:37:00,42.2,26.8,30.34,North,355,0.0,1.0,54,0.00,,CLR,0.00,VWS V14.00,2013-04-27 06:37:00,
2013-04-27 02:42:00,42.1,26.7,30.34,North,355,0.0,2.0,54,0.00,,CLR,0.00,VWS V14.00,2013-04-27 06:42:00,
2013-04-27 02:47:00,41.9,26.5,30.34,North,355,1.0,2.0,54,0.00,,CLR,0.00,VWS V14.00,2013-04-27 06:47:00,
2013-04-27 02:52:00,41.8,26.4,30.34,NE,45,0.0,2.0,54,0.00,,CLR,0.00,VWS V14.00,2013-04-27 06:52:00,
2013-04-27 02:57:00,41.8,26.8,30.34,NE,45,1.0,2.0,55,0.00,,CLR,0.00,VWS V14.00,2013-04-27 06:57:00,
2013-04-27 03:02:00,41.6,26.6,30.33,NE,38,1.0,3.0,55,0.00,,CLR,0.00,VWS V14.00,2013-04-27 07:02:00,
2013-04-27 03:07:00,41.5,26.5,30.33,NE,38,1.0,3.0,55,0.00,,CLR,0.00,VWS V14.00,2013-04-27 07:07:00,
2013-04-27 03:12:00,41.3,26.4,30.33,NE,38,1.0,3.0,55,0.00,,CLR,0.00,VWS V14.00,2013-04-27 07:12:00,
2013-04-27 03:17:00,41.2,26.7,30.33,NE,38,1.0,2.0,56,0.00,,CLR,0.00,VWS V14.00,2013-04-27 07:17:00,
2013-04-27 03:22:00,41.1,26.6,30.33,NE,38,0.0,2.0,56,0.00,,CLR,0.00,VWS V14.00,2013-04-27 07:22:00,
2013-04-27 03:27:00,41.1,26.6,30.33,NE,38,1.0,2.0,56,0.00,,CLR,0.00,VWS V14.00,2013-04-27 07:27:00,
2013-04-27 03:32:00,40.9,26.4,30.33,NE,36,0.0,1.0,56,0.00,,CLR,0.00,VWS V14.00,2013-04-27 07:32:00,
2013-04-27 03:37:00,40.9,26.4,30.33,NE,36,0.0,1.0,56,0.00,,CLR,0.00,VWS V14.00,2013-04-27 07:37:00,
2013-04-27 03:42:00,40.8,26.3,30.33,NE,36,0.0,2.0,56,0.00,,CLR,0.00,VWS V14.00,2013-04-27 07:42:00,
2013-04-27 03:47:00,40.6,26.1,30.34,NE,36,1.0,3.0,56,0.00,,CLR,0.00,VWS V14.00,2013-04-27 07:47:00,
2013-04-27 03:52:00,40.6,26.6,30.34,NNE,17,2.0,2.0,57,0.00,,CLR,0.00,VWS V14.00,2013-04-27 07:52:00,
2013-04-27 03:57:00,40.5,26.5,30.34,NNE,17,1.0,2.0,57,0.00,,CLR,0.00,VWS V14.00,2013-04-27 07:57:00,
2013-04-27 04:02:00,40.5,26.5,30.33,NNE,17,1.0,1.0,57,0.00,,CLR,0.00,VWS V14.00,2013-04-27 08:02:00,
2013-04-27 04:07:00,40.3,26.7,30.33,NNE,17,0.0,1.0,58,0.00,,CLR,0.00,VWS V14.00,2013-04-27 08:07:00,
2013-04-27 04:12:00,40.2,26.6,30.33,NNE,17,1.0,2.0,58,0.00,,CLR,0.00,VWS V14.00,2013-04-27 08:12:00,
2013-04-27 04:17:00,40.1,26.5,30.33,NNE,17,0.0,1.0,58,0.00,,CLR,0.00,VWS V14.00,2013-04-27 08:17:00,
2013-04-27 04:22:00,40.1,26.5,30.33,NNE,17,2.0,3.0,58,0.00,,CLR,0.00,VWS V14.00,2013-04-27 08:22:00,
2013-04-27 04:27:00,39.9,26.8,30.33,NNE,22,2.0,2.0,59,0.00,,CLR,0.00,VWS V14.00,2013-04-27 08:27:00,
2013-04-27 04:32:00,39.8,26.7,30.34,NNE,22,1.0,2.0,59,0.00,,CLR,0.00,VWS V14.00,2013-04-27 08:32:00,
2013-04-27 04:37:00,39.6,26.5,30.34,NNE,22,1.0,2.0,59,0.00,,CLR,0.00,VWS V14.00,2013-04-27 08:37:00,
2013-04-27 04:42:00,39.6,26.5,30.34,North,10,1.0,1.0,59,0.00,,CLR,0.00,VWS V14.00,2013-04-27 08:42:00,
2013-04-27 04:47:00,39.5,26.8,30.34,NE,38,0.0,2.0,60,0.00,,CLR,0.00,VWS V14.00,2013-04-27 08:47:00,
2013-04-27 04:52:00,39.5,26.8,30.34,NE,38,1.0,3.0,60,0.00,,CLR,0.00,VWS V14.00,2013-04-27 08:52:00,
2013-04-27 04:57:00,39.3,26.6,30.34,NE,38,1.0,2.0,60,0.00,,CLR,0.00,VWS V14.00,2013-04-27 08:57:00,
2013-04-27 05:02:00,39.3,26.6,30.34,NE,38,1.0,1.0,60,0.00,,CLR,0.00,VWS V14.00,2013-04-27 09:02:00,
2013-04-27 05:07:00,39.2,26.5,30.34,NE,38,1.0,2.0,60,0.00,,CLR,0.00,VWS V14.00,2013-04-27 09:07:00,
2013-04-27 05:12:00,39.1,26.4,30.34,NE,38,2.0,2.0,60,0.00,,CLR,0.00,VWS V14.00,2013-04-27 09:12:00,
2013-04-27 05:17:00,39.1,26.4,30.34,NE,38,1.0,1.0,60,0.00,,CLR,0.00,VWS V14.00,2013-04-27 09:17:00,
2013-04-27 05:22:00,38.9,26.6,30.34,NE,38,0.0,1.0,61,0.00,,CLR,0.00,VWS V14.00,2013-04-27 09:22:00,
2013-04-27 05:27:00,38.8,26.5,30.34,NE,38,1.0,2.0,61,0.00,,CLR,0.00,VWS V14.00,2013-04-27 09:27:00,
2013-04-27 05:32:00,38.8,26.5,30.33,NE,42,2.0,2.0,61,0.00,,CLR,0.00,VWS V14.00,2013-04-27 09:32:00,
2013-04-27 05:37:00,38.8,26.5,30.33,NE,42,1.0,2.0,61,0.00,,CLR,0.00,VWS V14.00,2013-04-27 09:37:00,
2013-04-27 05:42:00,38.6,26.3,30.33,NE,42,1.0,1.0,61,0.00,,CLR,0.00,VWS V14.00,2013-04-27 09:42:00,
2013-04-27 05:47:00,38.6,26.7,30.33,NNW,346,0.0,2.0,62,0.00,,CLR,0.00,VWS V14.00,2013-04-27 09:47:00,
2013-04-27 05:52:00,38.6,26.7,30.33,NE,38,1.0,2.0,62,0.00,,CLR,0.00,VWS V14.00,2013-04-27 09:52:00,
2013-04-27 05:57:00,38.6,26.7,30.33,NE,38,1.0,2.0,62,0.00,,CLR,0.00,VWS V14.00,2013-04-27 09:57:00,
2013-04-27 06:02:00,38.6,26.7,30.34,NNE,18,1.0,1.0,62,0.00,,CLR,0.00,VWS V14.00,2013-04-27 10:02:00,
2013-04-27 06:07:00,38.5,26.6,30.34,NNE,18,0.0,2.0,62,0.00,,CLR,0.00,VWS V14.00,2013-04-27 10:07:00,
2013-04-27 06:12:00,38.6,26.7,30.34,NNE,18,1.0,1.0,62,0.00,,CLR,0.00,VWS V14.00,2013-04-27 10:12:00,
2013-04-27 06:17:00,38.6,26.7,30.34,NE,34,1.0,2.0,62,0.00,,CLR,0.00,VWS V14.00,2013-04-27 10:17:00,
2013-04-27 06:21:00,38.6,26.7,30.34,NE,34,1.0,2.0,62,0.00,,CLR,0.00,VWS V14.00,2013-04-27 10:21:00,
2013-04-27 06:26:00,38.6,27.1,30.34,NE,34,1.0,3.0,63,0.00,,CLR,0.00,VWS V14.00,2013-04-27 10:26:00,
2013-04-27 06:31:00,38.5,27.0,30.34,NE,34,0.0,1.0,63,0.00,,CLR,0.00,VWS V14.00,2013-04-27 10:31:00,
2013-04-27 06:36:00,38.5,27.0,30.34,NE,34,0.0,2.0,63,0.00,,CLR,0.00,VWS V14.00,2013-04-27 10:36:00,
2013-04-27 06:41:00,38.5,27.0,30.34,NE,34,0.0,1.0,63,0.00,,CLR,0.00,VWS V14.00,2013-04-27 10:41:00,
2013-04-27 06:46:00,38.3,26.8,30.34,NE,34,1.0,2.0,63,0.00,,CLR,0.00,VWS V14.00,2013-04-27 10:46:00,
2013-04-27 06:51:00,38.5,27.4,30.34,NE,34,2.0,3.0,64,0.00,,CLR,0.00,VWS V14.00,2013-04-27 10:51:00,
2013-04-27 06:56:00,38.5,27.4,30.34,NE,34,0.0,1.0,64,0.00,,CLR,0.00,VWS V14.00,2013-04-27 10:56:00,
2013-04-27 07:01:00,38.5,27.4,30.35,NE,34,2.0,2.0,64,0.00,,CLR,0.00,VWS V14.00,2013-04-27 11:01:00,
2013-04-27 07:06:00,38.6,27.5,30.35,NNW,340,0.0,3.0,64,0.00,,CLR,0.00,VWS V14.00,2013-04-27 11:06:00,
2013-04-27 07:11:00,38.6,27.5,30.35,NNW,341,0.0,3.0,64,0.00,,CLR,0.00,VWS V14.00,2013-04-27 11:11:00,
2013-04-27 07:16:00,38.9,27.8,30.35,NNE,19,0.0,3.0,64,0.00,,CLR,0.00,VWS V14.00,2013-04-27 11:16:00,
2013-04-27 07:22:00,39.1,27.6,30.35,NNW,336,1.0,3.0,63,0.00,,CLR,0.00,VWS V14.00,2013-04-27 11:22:00,
2013-04-27 07:26:00,39.3,27.8,30.35,NNE,12,1.0,2.0,63,0.00,,CLR,0.00,VWS V14.00,2013-04-27 11:26:00,
2013-04-27 07:32:00,39.5,28.0,30.35,NNE,12,0.0,1.0,63,0.00,,CLR,0.00,VWS V14.00,2013-04-27 11:32:00,
2013-04-27 07:37:00,39.6,28.1,30.35,North,355,0.0,2.0,63,0.00,,CLR,0.00,VWS V14.00,2013-04-27 11:37:00,
2013-04-27 07:42:00,39.9,28.3,30.35,NNW,330,0.0,4.0,63,0.00,,CLR,0.00,VWS V14.00,2013-04-27 11:42:00,
2013-04-27 07:47:00,40.2,28.2,30.35,North,5,1.0,4.0,62,0.00,,CLR,0.00,VWS V14.00,2013-04-27 11:47:00,
2013-04-27 07:52:00,40.6,28.2,30.35,NNW,331,0.0,1.0,61,0.00,,CLR,0.00,VWS V14.00,2013-04-27 11:52:00,
2013-04-27 07:57:00,41.1,28.3,30.35,NW,309,2.0,4.0,60,0.00,,CLR,0.00,VWS V14.00,2013-04-27 11:57:00,
2013-04-27 08:02:00,41.5,28.3,30.35,North,355,0.0,2.0,59,0.00,,CLR,0.00,VWS V14.00,2013-04-27 12:02:00,
2013-04-27 08:07:00,41.9,28.2,30.35,NW,319,1.0,1.0,58,0.00,,CLR,0.00,VWS V14.00,2013-04-27 12:07:00,
2013-04-27 08:12:00,42.3,28.6,30.35,NW,313,1.0,5.0,58,0.00,,CLR,0.00,VWS V14.00,2013-04-27 12:12:00,
2013-04-27 08:17:00,42.8,28.6,30.36,NW,312,1.0,2.0,57,0.00,,CLR,0.00,VWS V14.00,2013-04-27 12:17:00,
2013-04-27 08:22:00,43.1,28.5,30.36,WNW,300,3.0,7.0,56,0.00,,CLR,0.00,VWS V14.00,2013-04-27 12:22:00,
2013-04-27 08:27:00,43.6,28.5,30.36,NW,309,0.0,5.0,55,0.00,,CLR,0.00,VWS V14.00,2013-04-27 12:27:00,
2013-04-27 08:32:00,44.2,29.1,30.36,NW,323,3.0,4.0,55,0.00,,CLR,0.00,VWS V14.00,2013-04-27 12:32:00,
2013-04-27 08:37:00,44.8,29.2,30.36,NNW,338,1.0,3.0,54,0.00,,CLR,0.00,VWS V14.00,2013-04-27 12:37:00,
2013-04-27 08:42:00,45.4,29.3,30.36,West,269,1.0,3.0,53,0.00,,CLR,0.00,VWS V14.00,2013-04-27 12:42:00,
2013-04-27 08:47:00,46.2,29.6,30.35,NNW,336,2.0,3.0,52,0.00,,CLR,0.00,VWS V14.00,2013-04-27 12:47:00,
2013-04-27 08:52:00,47.0,29.8,30.35,NW,318,4.0,8.0,51,0.00,,CLR,0.00,VWS V14.00,2013-04-27 12:52:00,
2013-04-27 08:57:00,47.6,29.9,30.35,WNW,286,3.0,3.0,50,0.00,,CLR,0.00,VWS V14.00,2013-04-27 12:57:00,
2013-04-27 09:02:00,48.0,30.3,30.35,NW,324,1.0,3.0,50,0.00,,CLR,0.00,VWS V14.00,2013-04-27 13:02:00,
2013-04-27 09:07:00,48.5,29.7,30.35,NNW,344,1.0,3.0,48,0.00,,CLR,0.00,VWS V14.00,2013-04-27 13:07:00,
2013-04-27 09:12:00,48.8,29.5,30.35,West,281,1.0,1.0,47,0.00,,CLR,0.00,VWS V14.00,2013-04-27 13:12:00,
2013-04-27 09:17:00,49.4,30.5,30.35,WNW,283,1.0,2.0,48,0.00,,CLR,0.00,VWS V14.00,2013-04-27 13:17:00,
2013-04-27 09:22:00,49.8,30.4,30.35,West,277,1.0,3.0,47,0.00,,CLR,0.00,VWS V14.00,2013-04-27 13:22:00,
2013-04-27 09:27:00,50.4,30.4,30.35,West,277,1.0,3.0,46,0.00,,CLR,0.00,VWS V14.00,2013-04-27 13:27:00,
2013-04-27 09:32:00,51.0,31.0,30.34,West,259,1.0,2.0,46,0.00,,CLR,0.00,VWS V14.00,2013-04-27 13:32:00,
2013-04-27 09:37:00,51.7,30.5,30.34,WNW,282,6.0,6.0,44,0.00,,CLR,0.00,VWS V14.00,2013-04-27 13:37:00,
2013-04-27 09:42:00,52.2,31.0,30.34,WNW,302,3.0,6.0,44,0.00,,CLR,0.00,VWS V14.00,2013-04-27 13:42:00,
2013-04-27 09:48:00,52.3,31.0,30.34,WSW,250,0.0,2.0,44,0.00,,CLR,0.00,VWS V14.00,2013-04-27 13:48:00,
2013-04-27 09:53:00,52.6,31.3,30.34,WNW,294,2.0,4.0,44,0.00,,CLR,0.00,VWS V14.00,2013-04-27 13:53:00,
2013-04-27 09:58:00,52.9,31.0,30.34,WNW,297,6.0,8.0,43,0.00,,CLR,0.00,VWS V14.00,2013-04-27 13:58:00,
2013-04-27 10:03:00,53.1,31.2,30.34,NW,315,4.0,6.0,43,0.00,,CLR,0.00,VWS V14.00,2013-04-27 14:03:00,
2013-04-27 10:08:00,53.2,31.3,30.34,West,278,3.0,4.0,43,0.00,,CLR,0.00,VWS V14.00,2013-04-27 14:08:00,
2013-04-27 10:13:00,53.3,31.4,30.34,NW,318,3.0,6.0,43,0.00,,CLR,0.00,VWS V14.00,2013-04-27 14:13:00,
2013-04-27 10:18:00,53.6,30.5,30.34,NNW,338,2.0,7.0,41,0.00,,CLR,0.00,VWS V14.00,2013-04-27 14:18:00,
2013-04-27 10:23:00,54.1,31.5,30.34,WNW,288,0.0,3.0,42,0.00,,CLR,0.00,VWS V14.00,2013-04-27 14:23:00,
2013-04-27 10:28:00,54.7,30.9,30.34,West,281,5.0,7.0,40,0.00,,CLR,0.00,VWS V14.00,2013-04-27 14:28:00,
2013-04-27 10:33:00,55.4,30.9,30.34,NW,314,2.0,2.0,39,0.00,,CLR,0.00,VWS V14.00,2013-04-27 14:33:00,
2013-04-27 10:38:00,55.9,29.4,30.34,NW,315,1.0,5.0,36,0.00,,CLR,0.00,VWS V14.00,2013-04-27 14:38:00,
2013-04-27 10:43:00,55.9,28.7,30.34,West,280,5.0,10.0,35,0.00,,CLR,0.00,VWS V14.00,2013-04-27 14:43:00,
2013-04-27 10:48:00,55.9,29.4,30.33,WNW,297,7.0,9.0,36,0.00,,CLR,0.00,VWS V14.00,2013-04-27 14:48:00,
2013-04-27 10:53:00,56.3,29.0,30.33,NNW,348,3.0,7.0,35,0.00,,CLR,0.00,VWS V14.00,2013-04-27 14:53:00,
2013-04-27 10:58:00,56.5,28.5,30.33,WNW,289,3.0,10.0,34,0.00,,CLR,0.00,VWS V14.00,2013-04-27 14:58:00,
2013-04-27 11:03:00,56.7,27.9,30.33,WSW,252,4.0,5.0,33,0.00,,CLR,0.00,VWS V14.00,2013-04-27 15:03:00,
2013-04-27 11:08:00,57.0,28.9,30.33,NW,311,3.0,6.0,34,0.00,,CLR,0.00,VWS V14.00,2013-04-27 15:08:00,
2013-04-27 11:13:00,57.0,28.2,30.33,WNW,284,12.0,12.0,33,0.00,,CLR,0.00,VWS V14.00,2013-04-27 15:13:00,
2013-04-27 11:18:00,57.0,28.9,30.33,West,278,2.0,7.0,34,0.00,,CLR,0.00,VWS V14.00,2013-04-27 15:18:00,
2013-04-27 11:23:00,57.6,28.7,30.33,NW,318,3.0,3.0,33,0.00,,CLR,0.00,VWS V14.00,2013-04-27 15:23:00,
2013-04-27 11:28:00,58.3,28.6,30.33,WNW,298,4.0,10.0,32,0.00,,CLR,0.00,VWS V14.00,2013-04-27 15:28:00,
2013-04-27 11:33:00,58.4,27.1,30.33,West,279,5.0,6.0,30,0.00,,CLR,0.00,VWS V14.00,2013-04-27 15:33:00,
2013-04-27 11:38:00,58.6,27.3,30.33,WNW,302,1.0,4.0,30,0.00,,CLR,0.00,VWS V14.00,2013-04-27 15:38:00,
2013-04-27 11:43:00,58.7,31.1,30.33,WNW,286,2.0,5.0,35,0.00,,CLR,0.00,VWS V14.00,2013-04-27 15:43:00,
2013-04-27 11:48:00,59.9,31.5,30.32,WNW,287,3.0,5.0,34,0.00,,CLR,0.00,VWS V14.00,2013-04-27 15:48:00,
2013-04-27 11:53:00,59.9,30.0,30.32,WNW,300,6.0,9.0,32,0.00,,CLR,0.00,VWS V14.00,2013-04-27 15:53:00,
2013-04-27 11:58:00,59.3,25.4,30.32,West,266,4.0,5.0,27,0.00,,CLR,0.00,VWS V14.00,2013-04-27 15:58:00,
2013-04-27 12:03:00,59.2,30.1,30.31,West,267,4.0,10.0,33,0.00,,CLR,0.00,VWS V14.00,2013-04-27 16:03:00,
2013-04-27 12:08:00,59.8,27.5,30.31,West,275,6.0,12.0,29,0.00,,CLR,0.00,VWS V14.00,2013-04-27 16:08:00,
2013-04-27 12:13:00,59.6,27.3,30.31,WNW,282,4.0,10.0,29,0.00,,CLR,0.00,VWS V14.00,2013-04-27 16:13:00,
2013-04-27 12:18:00,59.5,29.6,30.31,SW,217,0.0,1.0,32,0.00,,CLR,0.00,VWS V14.00,2013-04-27 16:18:00,
2013-04-27 12:23:00,60.2,27.0,30.31,WNW,291,0.0,2.0,28,0.00,,CLR,0.00,VWS V14.00,2013-04-27 16:23:00,
2013-04-27 12:28:00,61.6,25.5,30.31,North,5,3.0,6.0,25,0.00,,CLR,0.00,VWS V14.00,2013-04-27 16:28:00,
2013-04-27 12:33:00,62.1,25.9,30.30,North,355,0.0,3.0,25,0.00,,CLR,0.00,VWS V14.00,2013-04-27 16:33:00,
2013-04-27 12:38:00,62.1,25.9,30.30,WNW,303,5.0,6.0,25,0.00,,CLR,0.00,VWS V14.00,2013-04-27 16:38:00,
2013-04-27 12:43:00,60.9,25.8,30.30,WNW,283,0.0,5.0,26,0.00,,CLR,0.00,VWS V14.00,2013-04-27 16:43:00,
2013-04-27 12:48:00,61.3,26.1,30.29,WSW,247,4.0,7.0,26,0.00,,CLR,0.00,VWS V14.00,2013-04-27 16:48:00,
2013-04-27 12:53:00,61.3,24.2,30.29,West,273,2.0,7.0,24,0.00,,CLR,0.00,VWS V14.00,2013-04-27 16:53:00,
2013-04-27 12:58:00,61.8,24.6,30.29,WNW,300,7.0,10.0,24,0.00,,CLR,0.00,VWS V14.00,2013-04-27 16:58:00,
2013-04-27 13:03:00,62.4,25.2,30.29,WSW,244,2.0,4.0,24,0.00,,CLR,0.00,VWS V14.00,2013-04-27 17:03:00,
2013-04-27 13:08:00,62.3,27.0,30.29,West,264,4.0,4.0,26,0.00,,CLR,0.00,VWS V14.00,2013-04-27 17:08:00,
2013-04-27 13:13:00,62.1,24.9,30.29,WSW,254,3.0,5.0,24,0.00,,CLR,0.00,VWS V14.00,2013-04-27 17:13:00,
2013-04-27 13:18:00,61.8,24.6,30.29,NW,305,4.0,4.0,24,0.00,,CLR,0.00,VWS V14.00,2013-04-27 17:18:00,
2013-04-27 13:23:00,62.4,28.9,30.29,SSW,193,2.0,3.0,28,0.00,,CLR,0.00,VWS V14.00,2013-04-27 17:23:00,
2013-04-27 13:28:00,62.7,25.4,30.29,WNW,282,6.0,9.0,24,0.00,,CLR,0.00,VWS V14.00,2013-04-27 17:28:00,
2013-04-27 13:33:00,63.2,29.6,30.28,NNE,32,3.0,5.0,28,0.00,,CLR,0.00,VWS V14.00,2013-04-27 17:33:00,
2013-04-27 13:38:00,63.7,29.1,30.28,WNW,296,4.0,5.0,27,0.00,,CLR,0.00,VWS V14.00,2013-04-27 17:38:00,
2013-04-27 13:43:00,64.7,31.7,30.28,NW,308,4.0,5.0,29,0.00,,CLR,0.00,VWS V14.00,2013-04-27 17:43:00,
2013-04-27 13:48:00,65.2,29.5,30.27,NE,36,4.0,4.0,26,0.00,,CLR,0.00,VWS V14.00,2013-04-27 17:48:00,
2013-04-27 13:53:00,63.9,23.2,30.27,SSW,200,2.0,3.0,21,0.00,,CLR,0.00,VWS V14.00,2013-04-27 17:53:00,
2013-04-27 13:58:00,63.7,25.2,30.27,WNW,294,3.0,10.0,23,0.00,,CLR,0.00,VWS V14.00,2013-04-27 17:58:00,
2013-04-27 14:03:00,63.7,25.2,30.27,WNW,298,5.0,5.0,23,0.00,,CLR,0.00,VWS V14.00,2013-04-27 18:03:00,
2013-04-27 14:08:00,63.7,25.2,30.27,NW,321,3.0,11.0,23,0.00,,CLR,0.00,VWS V14.00,2013-04-27 18:08:00,
2013-04-27 14:13:00,63.4,23.9,30.27,West,279,9.0,10.0,22,0.00,,CLR,0.00,VWS V14.00,2013-04-27 18:13:00,
2013-04-27 14:18:00,63.2,23.8,30.27,West,281,0.0,2.0,22,0.00,,CLR,0.00,VWS V14.00,2013-04-27 18:18:00,
2013-04-27 14:23:00,63.7,24.2,30.27,SE,133,0.0,4.0,22,0.00,,CLR,0.00,VWS V14.00,2013-04-27 18:23:00,
2013-04-27 14:28:00,64.7,27.1,30.27,WNW,298,1.0,4.0,24,0.00,,CLR,0.00,VWS V14.00,2013-04-27 18:28:00,
2013-04-27 14:33:00,65.3,29.6,30.26,NW,323,3.0,5.0,26,0.00,,CLR,0.00,VWS V14.00,2013-04-27 18:33:00,
2013-04-27 14:38:00,65.3,24.4,30.26,SE,140,1.0,3.0,21,0.00,,CLR,0.00,VWS V14.00,2013-04-27 18:38:00,
2013-04-27 14:43:00,65.0,26.3,30.26,NW,326,0.0,5.0,23,0.00,,CLR,0.00,VWS V14.00,2013-04-27 18:43:00,
2013-04-27 14:48:00,65.0,24.1,30.25,WSW,248,5.0,5.0,21,0.00,,CLR,0.00,VWS V14.00,2013-04-27 18:48:00,
2013-04-27 14:53:00,65.2,24.3,30.25,West,281,4.0,5.0,21,0.00,,CLR,0.00,VWS V14.00,2013-04-27 18:53:00,
2013-04-27 14:58:00,65.5,26.8,30.25,WNW,302,6.0,6.0,23,0.00,,CLR,0.00,VWS V14.00,2013-04-27 18:58:00,
2013-04-27 15:03:00,65.6,30.8,30.25,ENE,64,1.0,6.0,27,0.00,,CLR,0.00,VWS V14.00,2013-04-27 19:03:00,
2013-04-27 15:08:00,66.0,28.2,30.25,NNW,343,0.0,1.0,24,0.00,,CLR,0.00,VWS V14.00,2013-04-27 19:08:00,
2013-04-27 15:13:00,66.0,27.2,30.25,WNW,288,2.0,7.0,23,0.00,,CLR,0.00,VWS V14.00,2013-04-27 19:13:00,
2013-04-27 15:18:00,66.0,21.3,30.24,West,279,3.0,10.0,18,0.00,,CLR,0.00,VWS V14.00,2013-04-27 19:18:00,
2013-04-27 15:23:00,66.1,26.2,30.24,NNW,346,2.0,10.0,22,0.00,,CLR,0.00,VWS V14.00,2013-04-27 19:23:00,
2013-04-27 15:28:00,66.1,25.1,30.24,NW,311,3.0,6.0,21,0.00,,CLR,0.00,VWS V14.00,2013-04-27 19:28:00,
2013-04-27 15:33:00,66.3,26.4,30.23,NNW,328,1.0,4.0,22,0.00,,CLR,0.00,VWS V14.00,2013-04-27 19:33:00,
2013-04-27 15:39:00,66.4,24.1,30.23,WNW,302,6.0,10.0,20,0.00,,CLR,0.00,VWS V14.00,2013-04-27 19:39:00,
2013-04-27 15:43:00,66.4,24.1,30.23,WNW,296,6.0,7.0,20,0.00,,CLR,0.00,VWS V14.00,2013-04-27 19:43:00,
2013-04-27 15:48:00,66.6,23.1,30.23,WNW,288,5.0,7.0,19,0.00,,CLR,0.00,VWS V14.00,2013-04-27 19:48:00,
2013-04-27 15:53:00,66.1,25.1,30.23,West,280,9.0,12.0,21,0.00,,CLR,0.00,VWS V14.00,2013-04-27 19:53:00,
2013-04-27 15:58:00,66.0,23.8,30.23,WNW,283,0.0,2.0,20,0.00,,CLR,0.00,VWS V14.00,2013-04-27 19:58:00,
2013-04-27 16:03:00,66.4,29.5,30.22,NW,326,9.0,9.0,25,0.00,,CLR,0.00,VWS V14.00,2013-04-27 20:03:00,
2013-04-27 16:08:00,66.6,27.7,30.22,North,5,2.0,7.0,23,0.00,,CLR,0.00,VWS V14.00,2013-04-27 20:08:00,
2013-04-27 16:13:00,66.6,24.3,30.22,WNW,286,0.0,4.0,20,0.00,,CLR,0.00,VWS V14.00,2013-04-27 20:13:00,
2013-04-27 16:19:00,66.8,26.8,30.22,WNW,295,3.0,5.0,22,0.00,,CLR,0.00,VWS V14.00,2013-04-27 20:19:00,
2013-04-27 16:24:00,66.9,26.9,30.22,WNW,298,5.0,12.0,22,0.00,,CLR,0.00,VWS V14.00,2013-04-27 20:24:00,
2013-04-27 16:29:00,66.9,26.9,30.22,NW,304,4.0,11.0,22,0.00,,CLR,0.00,VWS V14.00,2013-04-27 20:29:00,
2013-04-27 16:34:00,66.6,25.5,30.22,WNW,288,5.0,10.0,21,0.00,,CLR,0.00,VWS V14.00,2013-04-27 20:34:00,
2013-04-27 16:39:00,66.4,25.3,30.22,NW,308,4.0,5.0,21,0.00,,CLR,0.00,VWS V14.00,2013-04-27 20:39:00,
2013-04-27 16:44:00,66.3,25.2,30.22,NW,317,3.0,6.0,21,0.00,,CLR,0.00,VWS V14.00,2013-04-27 20:44:00,
2013-04-27 16:49:00,66.1,25.1,30.21,West,277,5.0,6.0,21,0.00,,CLR,0.00,VWS V14.00,2013-04-27 20:49:00,
2013-04-27 16:54:00,66.3,25.2,30.21,West,280,6.0,9.0,21,0.00,,CLR,0.00,VWS V14.00,2013-04-27 20:54:00,
2013-04-27 16:59:00,66.6,26.6,30.21,WNW,283,5.0,12.0,22,0.00,,CLR,0.00,VWS V14.00,2013-04-27 20:59:00,
2013-04-27 17:04:00,66.6,25.5,30.21,NW,316,0.0,6.0,21,0.00,,CLR,0.00,VWS V14.00,2013-04-27 21:04:00,
2013-04-27 17:09:00,66.8,26.8,30.21,West,281,2.0,4.0,22,0.00,,CLR,0.00,VWS V14.00,2013-04-27 21:09:00,
2013-04-27 17:14:00,66.9,25.7,30.21,WNW,297,1.0,2.0,21,0.00,,CLR,0.00,VWS V14.00,2013-04-27 21:14:00,
2013-04-27 17:19:00,66.8,26.8,30.21,WNW,288,4.0,11.0,22,0.00,,CLR,0.00,VWS V14.00,2013-04-27 21:19:00,
2013-04-27 17:24:00,66.8,25.6,30.21,North,5,5.0,6.0,21,0.00,,CLR,0.00,VWS V14.00,2013-04-27 21:24:00,
2013-04-27 17:29:00,66.6,25.5,30.21,NW,304,6.0,8.0,21,0.00,,CLR,0.00,VWS V14.00,2013-04-27 21:29:00,
2013-04-27 17:34:00,66.4,27.5,30.21,WNW,290,2.0,5.0,23,0.00,,CLR,0.00,VWS V14.00,2013-04-27 21:34:00,
2013-04-27 17:39:00,66.4,26.4,30.21,WNW,294,2.0,6.0,22,0.00,,CLR,0.00,VWS V14.00,2013-04-27 21:39:00,
2013-04-27 17:44:00,66.3,26.4,30.21,West,261,3.0,10.0,22,0.00,,CLR,0.00,VWS V14.00,2013-04-27 21:44:00,
2013-04-27 17:49:00,66.1,26.2,30.21,WNW,290,4.0,5.0,22,0.00,,CLR,0.00,VWS V14.00,2013-04-27 21:49:00,
2013-04-27 17:54:00,66.1,26.2,30.21,WNW,293,1.0,5.0,22,0.00,,CLR,0.00,VWS V14.00,2013-04-27 21:54:00,
2013-04-27 17:59:00,66.3,27.4,30.21,WNW,294,0.0,5.0,23,0.00,,CLR,0.00,VWS V14.00,2013-04-27 21:59:00,
2013-04-27 18:04:00,66.3,27.4,30.21,North,5,2.0,5.0,23,0.00,,CLR,0.00,VWS V14.00,2013-04-27 22:04:00,
2013-04-27 18:09:00,66.3,27.4,30.21,North,10,4.0,4.0,23,0.00,,CLR,0.00,VWS V14.00,2013-04-27 22:09:00,
2013-04-27 18:14:00,66.3,27.4,30.21,NW,319,2.0,5.0,23,0.00,,CLR,0.00,VWS V14.00,2013-04-27 22:14:00,
2013-04-27 18:19:00,65.8,27.0,30.20,NNE,24,1.0,4.0,23,0.00,,CLR,0.00,VWS V14.00,2013-04-27 22:19:00,
2013-04-27 18:24:00,65.5,26.8,30.20,NNW,338,2.0,3.0,23,0.00,,CLR,0.00,VWS V14.00,2013-04-27 22:24:00,
2013-04-27 18:29:00,65.6,27.9,30.20,NW,313,5.0,5.0,24,0.00,,CLR,0.00,VWS V14.00,2013-04-27 22:29:00,
2013-04-27 18:34:00,65.6,26.8,30.20,WNW,300,1.0,3.0,23,0.00,,CLR,0.00,VWS V14.00,2013-04-27 22:34:00,
2013-04-27 18:39:00,65.6,26.8,30.20,WNW,303,3.0,4.0,23,0.00,,CLR,0.00,VWS V14.00,2013-04-27 22:39:00,
2013-04-27 18:44:00,65.6,27.9,30.20,WNW,303,2.0,2.0,24,0.00,,CLR,0.00,VWS V14.00,2013-04-27 22:44:00,
2013-04-27 18:49:00,65.5,26.8,30.20,NE,40,2.0,2.0,23,0.00,,CLR,0.00,VWS V14.00,2013-04-27 22:49:00,
2013-04-27 18:54:00,65.3,27.6,30.20,NNE,23,0.0,2.0,24,0.00,,CLR,0.00,VWS V14.00,2013-04-27 22:54:00,
2013-04-27 18:59:00,65.0,26.3,30.20,NE,38,0.0,2.0,23,0.00,,CLR,0.00,VWS V14.00,2013-04-27 22:59:00,
2013-04-27 19:04:00,64.7,27.1,30.20,NE,36,0.0,1.0,24,0.00,,CLR,0.00,VWS V14.00,2013-04-27 23:04:00,
2013-04-27 19:09:00,64.5,27.9,30.20,NE,36,0.0,1.0,25,0.00,,CLR,0.00,VWS V14.00,2013-04-27 23:09:00,
2013-04-27 19:14:00,64.3,26.8,30.20,NE,36,3.0,4.0,24,0.00,,CLR,0.00,VWS V14.00,2013-04-27 23:14:00,
2013-04-27 19:19:00,63.9,26.4,30.21,South,179,1.0,2.0,24,0.00,,CLR,0.00,VWS V14.00,2013-04-27 23:19:00,
2013-04-27 19:24:00,63.2,26.8,30.21,SE,142,1.0,3.0,25,0.00,,CLR,0.00,VWS V14.00,2013-04-27 23:24:00,
2013-04-27 19:29:00,62.9,26.6,30.21,East,99,3.0,5.0,25,0.00,,CLR,0.00,VWS V14.00,2013-04-27 23:29:00,
2013-04-27 19:34:00,62.3,25.1,30.21,ESE,109,4.0,4.0,24,0.00,,CLR,0.00,VWS V14.00,2013-04-27 23:34:00,
2013-04-27 19:39:00,61.6,24.5,30.21,East,83,2.0,4.0,24,0.00,,CLR,0.00,VWS V14.00,2013-04-27 23:39:00,
2013-04-27 19:44:00,61.0,25.0,30.21,SE,125,1.0,4.0,25,0.00,,CLR,0.00,VWS V14.00,2013-04-27 23:44:00,
2013-04-27 19:49:00,60.7,24.7,30.21,SSE,149,1.0,4.0,25,0.00,,FEW100,0.00,VWS V14.00,2013-04-27 23:49:00,
2013-04-27 19:54:00,60.2,24.3,30.21,ENE,78,2.0,4.0,25,0.00,,FEW100,0.00,VWS V14.00,2013-04-27 23:54:00,
2013-04-27 19:59:00,59.9,24.0,30.21,SE,133,3.0,5.0,25,0.00,,FEW100,0.00,VWS V14.00,2013-04-27 23:59:00,
2013-04-27 20:04:00,59.6,25.6,30.22,ENE,74,0.0,3.0,27,0.00,,FEW100,0.00,VWS V14.00,2013-04-28 00:04:00,
2013-04-27 20:09:00,59.2,26.1,30.22,SE,144,2.0,4.0,28,0.00,,FEW100,0.00,VWS V14.00,2013-04-28 00:09:00,
2013-04-27 20:14:00,58.7,28.9,30.22,SE,132,1.0,7.0,32,0.00,,FEW100,0.00,VWS V14.00,2013-04-28 00:14:00,
2013-04-27 20:19:00,58.4,30.9,30.22,SE,138,2.0,4.0,35,0.00,,FEW100,0.00,VWS V14.00,2013-04-28 00:19:00,
2013-04-27 20:24:00,58.0,31.2,30.22,East,96,2.0,3.0,36,0.00,,FEW100,0.00,VWS V14.00,2013-04-28 00:24:00,
2013-04-27 20:29:00,57.6,30.9,30.22,ESE,121,3.0,7.0,36,0.00,,FEW100,0.00,VWS V14.00,2013-04-28 00:29:00,
2013-04-27 20:34:00,57.3,31.3,30.22,East,85,0.0,6.0,37,0.00,,SCT095,0.00,VWS V14.00,2013-04-28 00:34:00,
2013-04-27 20:39:00,57.2,31.2,30.22,SE,125,3.0,4.0,37,0.00,,SCT095,0.00,VWS V14.00,2013-04-28 00:39:00,
2013-04-27 20:44:00,56.9,31.6,30.22,SE,135,2.0,3.0,38,0.00,,SCT095,0.00,VWS V14.00,2013-04-28 00:44:00,
2013-04-27 20:49:00,56.7,31.4,30.23,SSE,160,3.0,4.0,38,0.00,,SCT095,0.00,VWS V14.00,2013-04-28 00:49:00,
2013-04-27 20:54:00,56.5,31.2,30.23,SE,125,2.0,6.0,38,0.00,,SCT095,0.00,VWS V14.00,2013-04-28 00:54:00,
2013-04-27 20:59:00,56.3,31.0,30.23,ESE,115,3.0,3.0,38,0.00,,SCT095,0.00,VWS V14.00,2013-04-28 00:59:00,
2013-04-27 21:04:00,56.2,31.0,30.23,ESE,108,1.0,6.0,38,0.00,,SCT095,0.00,VWS V14.00,2013-04-28 01:04:00,
2013-04-27 21:09:00,55.9,30.7,30.23,SE,135,1.0,4.0,38,0.00,,SCT095,0.00,VWS V14.00,2013-04-28 01:09:00,
2013-04-27 21:14:00,55.7,30.5,30.23,ESE,108,1.0,4.0,38,0.00,,SCT095,0.00,VWS V14.00,2013-04-28 01:14:00,
2013-04-27 21:19:00,55.4,30.2,30.24,SE,124,2.0,2.0,38,0.00,,SCT095,0.00,VWS V14.00,2013-04-28 01:19:00,
2013-04-27 21:24:00,55.3,30.8,30.24,SE,143,2.0,4.0,39,0.00,,SCT095,0.00,VWS V14.00,2013-04-28 01:24:00,
2013-04-27 21:29:00,55.1,30.6,30.24,East,93,3.0,4.0,39,0.00,,SCT095,0.00,VWS V14.00,2013-04-28 01:29:00,
2013-04-27 21:34:00,54.8,30.3,30.24,SE,128,2.0,3.0,39,0.00,,SCT095,0.00,VWS V14.00,2013-04-28 01:34:00,
2013-04-27 21:39:00,54.7,30.2,30.24,SE,129,2.0,4.0,39,0.00,,SCT095,0.00,VWS V14.00,2013-04-28 01:39:00,
2013-04-27 21:44:00,54.4,30.0,30.24,SSE,167,1.0,2.0,39,0.00,,SCT095,0.00,VWS V14.00,2013-04-28 01:44:00,
2013-04-27 21:49:00,54.2,29.8,30.24,SSE,151,1.0,3.0,39,0.00,,OVC100,0.00,VWS V14.00,2013-04-28 01:49:00,
2013-04-27 21:54:00,54.1,29.7,30.24,ESE,111,2.0,3.0,39,0.00,,OVC100,0.00,VWS V14.00,2013-04-28 01:54:00,
2013-04-27 21:59:00,53.9,29.5,30.24,SSE,151,2.0,4.0,39,0.00,,OVC100,0.00,VWS V14.00,2013-04-28 01:59:00,
2013-04-27 22:04:00,53.6,29.3,30.25,East,94,3.0,3.0,39,0.00,,OVC100,0.00,VWS V14.00,2013-04-28 02:04:00,
2013-04-27 22:09:00,53.5,29.2,30.25,ESE,109,1.0,3.0,39,0.00,,OVC100,0.00,VWS V14.00,2013-04-28 02:09:00,
2013-04-27 22:14:00,53.5,29.2,30.25,East,101,0.0,5.0,39,0.00,,OVC100,0.00,VWS V14.00,2013-04-28 02:14:00,
2013-04-27 22:19:00,53.3,29.0,30.25,ESE,112,2.0,11.0,39,0.00,,OVC100,0.00,VWS V14.00,2013-04-28 02:19:00,
2013-04-27 22:24:00,53.2,29.5,30.25,SE,146,3.0,7.0,40,0.00,,OVC100,0.00,VWS V14.00,2013-04-28 02:24:00,
2013-04-27 22:29:00,53.2,29.5,30.25,SSE,159,1.0,2.0,40,0.00,,OVC100,0.00,VWS V14.00,2013-04-28 02:29:00,
2013-04-27 22:34:00,53.1,29.4,30.25,ENE,74,2.0,3.0,40,0.00,,OVC100,0.00,VWS V14.00,2013-04-28 02:34:00,
2013-04-27 22:39:00,53.1,30.0,30.25,SE,145,3.0,3.0,41,0.00,,OVC100,0.00,VWS V14.00,2013-04-28 02:39:00,
2013-04-27 22:44:00,52.9,29.9,30.25,East,92,1.0,2.0,41,0.00,,OVC100,0.00,VWS V14.00,2013-04-28 02:44:00,
2013-04-27 22:49:00,52.8,29.8,30.25,SSE,150,1.0,3.0,41,0.00,,FEW100,0.00,VWS V14.00,2013-04-28 02:49:00,
2013-04-27 22:54:00,52.8,29.8,30.25,East,97,2.0,3.0,41,0.00,,FEW100,0.00,VWS V14.00,2013-04-28 02:54:00,
2013-04-27 22:59:00,52.6,29.6,30.25,SE,132,1.0,4.0,41,0.00,,FEW100,0.00,VWS V14.00,2013-04-28 02:59:00,
2013-04-27 23:04:00,52.5,29.5,30.24,ESE,112,1.0,4.0,41,0.00,,FEW100,0.00,VWS V14.00,2013-04-28 03:04:00,
2013-04-27 23:09:00,52.5,29.5,30.24,SE,137,2.0,5.0,41,0.00,,FEW100,0.00,VWS V14.00,2013-04-28 03:09:00,
2013-04-27 23:14:00,52.3,29.3,30.24,ESE,115,1.0,4.0,41,0.00,,FEW100,0.00,VWS V14.00,2013-04-28 03:14:00,
2013-04-27 23:19:00,52.3,29.9,30.24,SSE,151,1.0,4.0,42,0.00,,FEW100,0.00,VWS V14.00,2013-04-28 03:19:00,
2013-04-27 23:24:00,52.2,29.8,30.24,SE,144,4.0,4.0,42,0.00,,FEW100,0.00,VWS V14.00,2013-04-28 03:24:00,
2013-04-27 23:29:00,52.2,29.8,30.24,SE,134,1.0,3.0,42,0.00,,FEW100,0.00,VWS V14.00,2013-04-28 03:29:00,
2013-04-27 23:34:00,52.2,29.8,30.24,ESE,123,3.0,3.0,42,0.00,,FEW100,0.00,VWS V14.00,2013-04-28 03:34:00,
2013-04-27 23:39:00,52.2,29.8,30.24,ESE,103,1.0,2.0,42,0.00,,FEW100,0.00,VWS V14.00,2013-04-28 03:39:00,
2013-04-27 23:44:00,52.2,29.8,30.24,ESE,123,2.0,3.0,42,0.00,,FEW100,0.00,VWS V14.00,2013-04-28 03:44:00,
2013-04-27 23:49:00,52.2,30.4,30.24,East,80,0.0,1.0,43,0.00,,SCT095,0.00,VWS V14.00,2013-04-28 03:49:00,
2013-04-27 23:54:00,52.0,30.2,30.24,East,81,0.0,0.0,43,0.00,,SCT095,0.00,VWS V14.00,2013-04-28 03:54:00,
2013-04-27 23:59:00,51.9,30.7,30.24,East,81,1.0,2.0,44,0.00,,SCT095,0.00,VWS V14.00,2013-04-28 03:59:00,